Cincinnati, OH

6:36 PM EDT on August 24, 2019 (GMT -0400)
Cincinnati Municipal-Lunken

Weather History for KLUK - July, 2019

Change the Weather History Date:

Sunday, July 21, 2019

  Actual Average Record
Temperature  
Mean Temperature 82 °F -  
Max Temperature 91 °F 87 °F 99 °F (1983)
Min Temperature 73 °F 67 °F 52 °F (1970)
Cooling Degree Days 16    
Growing Degree Days 32 (Base 50)    
Moisture  
Dew Point 74 °F    
Average Humidity 80    
Maximum Humidity 100    
Minimum Humidity 61    
Precipitation  
Precipitation 0.00 in - - ()
Sea Level Pressure  
Sea Level Pressure 29.93 in    
Wind  
Wind Speed 4 mph (South)    
Max Wind Speed 16 mph    
Max Gust Speed -    
Visibility 9 miles    
Events Rain , Thunderstorm    
Averages and records for this station are not official NWS values.
T = Trace of Precipitation, MM = Missing Value Source: NWS Daily Summary

Daily Weather History Graph

Daily Weather History Graph

Search for Another Location

Airport or City:

Astronomy

Jul. 21, 2019 Rise Set
Actual Time 6:28 AM EDT 8:59 PM EDT
Civil Twilight 5:57 AM EDT 9:29 PM EDT
Nautical Twilight 5:19 AM EDT 10:07 PM EDT
Astronomical Twilight 4:36 AM EDT 10:50 PM EDT
Moon 11:55 PM EDT (7/21) 10:46 AM EDT (7/21)
Length of Visible Light 15h 32m
Length of Day
14h 30m
Waning Gibbous, 80% of the Moon is Illuminated
Jul 21
Waning Gibbous
Jul 24
Last Quarter
Jul 31
New
Aug 7
First Quarter
Aug 15
Full

Hourly Weather History & Observations

Time (EDT) Temp. Heat Index Dew Point Humidity Pressure Visibility Wind Dir Wind Speed Gust Speed Precip Events Conditions
12:53 AM 75.9 °F - 75.0 °F 97% 29.95 in 10.0 mi Calm Calm - N/A   Clear
1:53 AM 75.9 °F - 73.9 °F 94% 29.94 in 8.0 mi Calm Calm - N/A   Clear
2:53 AM 75.9 °F - 75.0 °F 97% 29.92 in 7.0 mi Calm Calm - N/A   Partly Cloudy
3:53 AM 75.0 °F - 73.0 °F 94% 29.92 in 7.0 mi Calm Calm - N/A   Clear
4:53 AM 75.9 °F - 73.9 °F 94% 29.92 in 9.0 mi Calm Calm - N/A   Clear
5:53 AM 73.9 °F - 73.9 °F 100% 29.92 in 6.0 mi Calm Calm - N/A   Clear
6:53 AM 73.9 °F - 73.9 °F 100% 29.95 in 7.0 mi Calm Calm - N/A   Clear
7:53 AM 78.1 °F - 75.9 °F 93% 29.96 in 7.0 mi Calm Calm - N/A   Clear
8:53 AM 82.0 °F 89.4 °F 75.9 °F 82% 29.97 in 10.0 mi SSE 4.6 mph - N/A   Partly Cloudy
9:53 AM 82.9 °F 90.8 °F 75.9 °F 79% 29.97 in 10.0 mi South 5.8 mph - N/A   Mostly Cloudy
10:09 AM 82.9 °F 91.8 °F 77.0 °F 82% 29.98 in 10.0 mi South 5.8 mph - N/A   Overcast
10:53 AM 86.0 °F 96.0 °F 75.9 °F 72% 29.96 in 10.0 mi South 5.8 mph - N/A   Partly Cloudy
11:17 AM 87.1 °F 98.8 °F 77.0 °F 72% 29.98 in 10.0 mi South 5.8 mph - N/A   Scattered Clouds
11:53 AM 88.0 °F 97.5 °F 75.0 °F 65% 29.96 in 10.0 mi WNW 5.8 mph - N/A   Scattered Clouds
12:53 PM 90.0 °F 100.2 °F 75.0 °F 61% 29.95 in 10.0 mi South 4.6 mph - N/A   Scattered Clouds
1:16 PM 90.0 °F 101.3 °F 75.9 °F 63% 29.95 in 10.0 mi South 10.4 mph - N/A Thunderstorm Scattered Clouds
1:53 PM 84.9 °F 93.3 °F 75.0 °F 72% 29.94 in 10.0 mi South 10.4 mph - N/A Thunderstorm Partly Cloudy
2:09 PM 87.1 °F 97.3 °F 75.9 °F 69% 29.94 in 10.0 mi South 6.9 mph - N/A   Clear
2:53 PM 89.1 °F 100.2 °F 75.9 °F 65% 29.91 in 10.0 mi South 10.4 mph - N/A   Scattered Clouds
3:53 PM 82.0 °F 87.4 °F 73.0 °F 74% 29.91 in 10.0 mi SSE 11.5 mph - N/A   Scattered Clouds
4:53 PM 84.9 °F 94.1 °F 75.9 °F 74% 29.90 in 10.0 mi South 16.1 mph - N/A   Scattered Clouds
5:53 PM 84.0 °F 87.8 °F 69.1 °F 61% 29.86 in 10.0 mi South 12.7 mph - N/A   Scattered Clouds
6:53 PM 81.0 °F 84.4 °F 70.0 °F 69% 29.88 in 10.0 mi South 6.9 mph - N/A   Partly Cloudy
7:53 PM 80.1 °F 83.8 °F 72.0 °F 76% 29.90 in 10.0 mi South 6.9 mph - N/A   Partly Cloudy
8:53 PM 79.0 °F - 73.0 °F 82% 29.89 in 10.0 mi South 11.5 mph - N/A   Mostly Cloudy
9:53 PM 78.1 °F - 73.0 °F 84% 29.89 in 10.0 mi South 8.1 mph - N/A Thunderstorm Scattered Clouds
10:31 PM 78.1 °F - 73.0 °F 84% 29.91 in 10.0 mi SSW 6.9 mph - N/A   Mostly Cloudy
10:53 PM 78.1 °F - 73.9 °F 87% 29.90 in 10.0 mi SSW 5.8 mph - N/A   Scattered Clouds
11:53 PM 78.1 °F - 71.1 °F 79% 29.89 in 10.0 mi Calm Calm - 0.00 in Rain Light Rain